星链-32675 (STARLINK-32675)

导读 | 豆包AI

STARLINK-32675是美国SpaceX公司星链(Starlink)星座的卫星,于2024年12月4日发射入轨。星链是全球规模最大的低轨卫星互联网星座,单星设计寿命超5年,为全球提供高速低延迟宽带服务。 作为星链第二代组网的一员,STARLINK-32675运行于近地轨道,配备激光链路与电推进系统,助力全球覆盖能力提升,尤其增强偏远地区、高纬度区域的互联网接入支持,支撑星链手机直连等服务的拓展。

Basic Information
目录编号:
62208
目录名称:
STARLINK-32675
国际标识:
2024-229S
轨道中心:
EARTH
卫星名称:
星链-32675
卫星全名:
星链-32675 (STARLINK-32675)
卫星状态:
在轨 (已飞行466 天)
发射日期:
2024-12-04 UTC
国别 :
美国 (US)
星等 :
--
Orbit Information
数据来源 国际轨道数据 AOE轨道数据
星历时间 2026-03-15T01:40:13+0800
14小时前
查看轨道信息
2026-03-11T00:00:00+0800
4天前
查看轨道信息
半长轴 6861.163km 6861.147km
偏心率 0.0001365 0.0000802
轨道倾角 43.001° 42.998°
近地点辐角 264.667° 149.371°
升交点赤经 242.173° 265.163°
平近点角 95.403° 124.725°
近地点 482.089km 482.459km
远地点 483.963km 483.561km
周期 94.266分钟 94.266分钟
每日圈数 15.275878 15.275932
Detailed Information
固有亮度:
5
最大亮度:
2.5
卫星平台:
Starlink V1.0
覆盖范围:
全球
运营商:
太空探索技术公司
运营商所在国:
美国
制造商(研发单位):
太空探索技术公司
制造商所在国:
美国
使用方式:
暂无
Satellite Introduction
Starlink 计划是 SpaceX 推出的全球卫星互联网项目,通过发射低轨道卫星,为全球尤其是偏远地区提供高速、低延迟的互联网服务。自 2019 年起,Starlink 已部署数千颗卫星,旨在缩小全球数字鸿沟,推动互联网普及。该项目还为军事、航空等行业提供通信支持,带来广泛经济效益。
2D Orbit Map
3D Orbit Map
Orbit Altitude Analysis Chart
Orbit Inclination Analysis Chart
Orbit Comprehensive Analysis Chart
View Comprehensive Chart